date,time,SUV Intensity [MED/Hr],UV Index,Daily total [MED],Since Last [MED]
02/05/2023,00:01:17,-0.001,0.0,0.0,0.0
02/05/2023,00:02:17,0.000,0.0,0.0,0.0
02/05/2023,00:03:17,0.000,0.0,0.0,0.0
02/05/2023,00:04:17,-0.001,0.0,0.0,0.0
02/05/2023,00:05:16,0.000,0.0,0.0,0.0
02/05/2023,00:06:17,0.001,0.0,0.0,0.0
02/05/2023,00:07:16,-0.000,0.0,0.0,0.0
02/05/2023,00:08:16,-0.001,0.0,0.0,0.0
02/05/2023,00:09:17,0.000,0.0,0.0,0.0
02/05/2023,00:10:17,0.000,0.0,0.0,0.0
02/05/2023,00:11:17,-0.000,0.0,0.0,0.0
02/05/2023,00:12:17,0.001,0.0,0.0,0.0
02/05/2023,00:13:17,0.001,0.0,0.0,0.0
02/05/2023,00:14:17,0.001,0.0,0.0,0.0
02/05/2023,00:15:16,0.000,0.0,0.0,0.0
02/05/2023,00:16:17,0.000,0.0,0.0,0.0
02/05/2023,00:17:18,0.000,0.0,0.0,0.0
02/05/2023,00:18:18,0.000,0.0,0.0,0.0
02/05/2023,00:19:16,0.000,0.0,0.0,0.0
02/05/2023,00:20:17,0.001,0.0,0.0,0.0
02/05/2023,00:21:17,0.001,0.0,0.0,0.0
02/05/2023,00:22:16,-0.000,0.0,0.0,0.0
02/05/2023,00:23:16,0.000,0.0,0.0,0.0
02/05/2023,00:24:17,0.001,0.0,0.0,0.0
02/05/2023,00:25:17,0.000,0.0,0.0,0.0
02/05/2023,00:26:17,0.001,0.0,0.0,0.0
02/05/2023,00:27:16,0.001,0.0,0.0,0.0
02/05/2023,00:28:16,0.000,0.0,0.0,0.0
02/05/2023,00:29:17,0.000,0.0,0.0,0.0
02/05/2023,00:30:17,0.001,0.0,0.0,0.0
02/05/2023,00:31:17,-0.000,0.0,0.0,0.0
02/05/2023,00:32:17,0.000,0.0,0.0,0.0
02/05/2023,00:33:17,0.000,0.0,0.0,0.0
02/05/2023,00:34:17,0.001,0.0,0.0,0.0
02/05/2023,00:35:17,0.000,0.0,0.0,0.0
02/05/2023,00:36:17,0.001,0.0,0.0,0.0
02/05/2023,00:37:17,0.000,0.0,0.0,0.0
02/05/2023,00:38:17,0.000,0.0,0.0,0.0
02/05/2023,00:39:16,0.001,0.0,0.0,0.0
02/05/2023,00:40:17,0.000,0.0,0.0,0.0
02/05/2023,00:41:17,0.000,0.0,0.0,0.0
02/05/2023,00:42:17,0.001,0.0,0.0,0.0
02/05/2023,00:43:17,0.000,0.0,0.0,0.0
02/05/2023,00:44:17,0.000,0.0,0.0,0.0
02/05/2023,00:45:17,0.001,0.0,0.0,0.0
02/05/2023,00:46:17,0.000,0.0,0.0,0.0
02/05/2023,00:47:17,0.001,0.0,0.0,0.0
02/05/2023,00:48:16,0.000,0.0,0.0,0.0
02/05/2023,00:49:17,0.002,0.0,0.0,0.0
02/05/2023,00:50:17,0.001,0.0,0.0,0.0
02/05/2023,00:51:17,0.000,0.0,0.0,0.0
02/05/2023,00:52:17,0.000,0.0,0.0,0.0
02/05/2023,00:53:17,0.001,0.0,0.0,0.0
02/05/2023,00:54:17,0.000,0.0,0.0,0.0
02/05/2023,00:55:17,-0.000,0.0,0.0,0.0
02/05/2023,00:56:17,0.000,0.0,0.0,0.0
02/05/2023,00:57:17,0.001,0.0,0.0,0.0
02/05/2023,00:58:17,0.000,0.0,0.0,0.0
02/05/2023,00:59:17,0.000,0.0,0.0,0.0
02/05/2023,01:00:17,0.001,0.0,0.0,0.0
02/05/2023,01:01:16,-0.001,0.0,0.0,0.0
02/05/2023,01:02:17,0.001,0.0,0.0,0.0
02/05/2023,01:03:17,0.000,0.0,0.0,0.0
02/05/2023,01:04:17,-0.001,0.0,0.0,0.0
02/05/2023,01:05:17,0.001,0.0,0.0,0.0
02/05/2023,01:06:17,0.000,0.0,0.0,0.0
02/05/2023,01:07:17,0.001,0.0,0.0,0.0
02/05/2023,01:08:17,0.000,0.0,0.0,0.0
02/05/2023,01:09:17,0.001,0.0,0.0,0.0
02/05/2023,01:10:17,0.000,0.0,0.0,0.0
02/05/2023,01:11:17,0.000,0.0,0.0,0.0
02/05/2023,01:12:17,0.000,0.0,0.0,0.0
02/05/2023,01:13:17,0.000,0.0,0.0,0.0
02/05/2023,01:14:16,0.000,0.0,0.0,0.0
02/05/2023,01:15:17,0.001,0.0,0.0,0.0
02/05/2023,01:16:17,0.001,0.0,0.0,0.0
02/05/2023,01:17:17,0.001,0.0,0.0,0.0
02/05/2023,01:18:17,0.000,0.0,0.0,0.0
02/05/2023,01:19:17,-0.000,0.0,0.0,0.0
02/05/2023,01:20:17,0.000,0.0,0.0,0.0
02/05/2023,01:21:17,0.001,0.0,0.0,0.0
02/05/2023,01:22:17,-0.001,0.0,0.0,0.0
02/05/2023,01:23:17,0.000,0.0,0.0,0.0
02/05/2023,01:24:17,0.000,0.0,0.0,0.0
02/05/2023,01:25:17,0.000,0.0,0.0,0.0
02/05/2023,01:26:17,0.000,0.0,0.0,0.0
02/05/2023,01:27:17,0.000,0.0,0.0,0.0
02/05/2023,01:28:17,0.001,0.0,0.0,0.0
02/05/2023,01:29:17,0.000,0.0,0.0,0.0
02/05/2023,01:30:17,-0.001,0.0,0.0,0.0
02/05/2023,01:31:17,0.002,0.0,0.0,0.0
02/05/2023,01:32:17,0.000,0.0,0.0,0.0
02/05/2023,01:33:17,-0.000,0.0,0.0,0.0
02/05/2023,01:34:16,0.000,0.0,0.0,0.0
02/05/2023,01:35:17,-0.000,0.0,0.0,0.0
02/05/2023,01:36:17,0.000,0.0,0.0,0.0
02/05/2023,01:37:17,0.001,0.0,0.0,0.0
02/05/2023,01:38:17,0.000,0.0,0.0,0.0
02/05/2023,01:39:17,0.002,0.0,0.0,0.0
02/05/2023,01:40:17,-0.000,0.0,0.0,0.0
02/05/2023,01:41:17,0.001,0.0,0.0,0.0
02/05/2023,01:42:17,0.001,0.0,0.0,0.0
02/05/2023,01:43:17,0.000,0.0,0.0,0.0
02/05/2023,01:44:17,0.000,0.0,0.0,0.0
02/05/2023,01:45:17,0.001,0.0,0.0,0.0
02/05/2023,01:46:17,0.000,0.0,0.0,0.0
02/05/2023,01:47:17,0.000,0.0,0.0,0.0
02/05/2023,01:48:17,-0.000,0.0,0.0,0.0
02/05/2023,01:49:17,0.001,0.0,0.0,0.0
02/05/2023,01:50:17,0.001,0.0,0.0,0.0
02/05/2023,01:51:17,0.001,0.0,0.0,0.0
02/05/2023,01:52:17,0.001,0.0,0.0,0.0
02/05/2023,01:53:16,0.000,0.0,0.0,0.0
02/05/2023,01:54:17,0.001,0.0,0.0,0.0
02/05/2023,01:55:17,0.000,0.0,0.0,0.0
02/05/2023,01:56:17,-0.001,0.0,0.0,0.0
02/05/2023,01:57:17,0.000,0.0,0.0,0.0
02/05/2023,01:58:17,0.001,0.0,0.0,0.0
02/05/2023,01:59:17,0.001,0.0,0.0,0.0
02/05/2023,02:00:17,0.001,0.0,0.0,0.0
02/05/2023,02:01:17,0.000,0.0,0.0,0.0
02/05/2023,02:02:17,0.000,0.0,0.0,0.0
02/05/2023,02:03:17,0.000,0.0,0.0,0.0
02/05/2023,02:04:17,0.002,0.0,0.0,0.0
02/05/2023,02:05:17,0.000,0.0,0.0,0.0
02/05/2023,02:06:17,0.001,0.0,0.0,0.0
02/05/2023,02:07:17,0.000,0.0,0.0,0.0
02/05/2023,02:08:17,-0.001,0.0,0.0,0.0
02/05/2023,02:09:17,-0.000,0.0,0.0,0.0
02/05/2023,02:10:17,0.001,0.0,0.0,0.0
02/05/2023,02:11:17,-0.001,0.0,0.0,0.0
02/05/2023,02:12:17,-0.001,0.0,0.0,0.0
02/05/2023,02:13:17,-0.001,0.0,0.0,0.0
02/05/2023,02:14:17,-0.000,0.0,0.0,0.0
02/05/2023,02:15:17,0.001,0.0,0.0,0.0
02/05/2023,02:16:17,0.000,0.0,0.0,0.0
02/05/2023,02:17:17,0.000,0.0,0.0,0.0
02/05/2023,02:18:17,0.000,0.0,0.0,0.0
02/05/2023,02:19:18,0.000,0.0,0.0,0.0
02/05/2023,02:20:17,0.001,0.0,0.0,0.0
02/05/2023,02:21:17,0.001,0.0,0.0,0.0
02/05/2023,02:22:17,0.000,0.0,0.0,0.0
02/05/2023,02:23:17,0.000,0.0,0.0,0.0
02/05/2023,02:24:17,0.000,0.0,0.0,0.0
02/05/2023,02:25:18,0.001,0.0,0.0,0.0
02/05/2023,02:26:21,0.000,0.0,0.0,0.0
02/05/2023,02:27:22,0.000,0.0,0.0,0.0
02/05/2023,02:28:19,0.000,0.0,0.0,0.0
02/05/2023,02:29:17,0.000,0.0,0.0,0.0
02/05/2023,02:30:17,0.000,0.0,0.0,0.0
02/05/2023,02:31:17,-0.000,0.0,0.0,0.0
02/05/2023,02:32:17,0.000,0.0,0.0,0.0
02/05/2023,02:33:17,-0.000,0.0,0.0,0.0
02/05/2023,02:34:17,-0.000,0.0,0.0,0.0
02/05/2023,02:35:17,0.001,0.0,0.0,0.0
02/05/2023,02:36:17,0.001,0.0,0.0,0.0
02/05/2023,02:37:17,0.000,0.0,0.0,0.0
02/05/2023,02:38:17,0.000,0.0,0.0,0.0
02/05/2023,02:39:17,-0.001,0.0,0.0,0.0
02/05/2023,02:40:17,0.000,0.0,0.0,0.0
02/05/2023,02:41:17,0.000,0.0,0.0,0.0
02/05/2023,02:42:17,0.000,0.0,0.0,0.0
02/05/2023,02:43:17,0.000,0.0,0.0,0.0
02/05/2023,02:44:17,0.000,0.0,0.0,0.0
02/05/2023,02:45:17,-0.001,0.0,0.0,0.0
02/05/2023,02:46:17,-0.000,0.0,0.0,0.0
02/05/2023,02:47:17,-0.000,0.0,0.0,0.0
02/05/2023,02:48:18,0.001,0.0,0.0,0.0
02/05/2023,02:49:17,0.001,0.0,0.0,0.0
02/05/2023,02:50:17,0.000,0.0,0.0,0.0
02/05/2023,02:51:20,-0.001,0.0,0.0,0.0
02/05/2023,02:52:18,0.000,0.0,0.0,0.0
02/05/2023,02:53:17,0.000,0.0,0.0,0.0
02/05/2023,02:54:17,-0.001,0.0,0.0,0.0
02/05/2023,02:55:17,-0.000,0.0,0.0,0.0
02/05/2023,02:56:18,0.000,0.0,0.0,0.0
02/05/2023,02:57:17,-0.000,0.0,0.0,0.0
02/05/2023,02:58:17,0.001,0.0,0.0,0.0
02/05/2023,02:59:17,0.000,0.0,0.0,0.0
02/05/2023,03:00:17,0.000,0.0,0.0,0.0
02/05/2023,03:01:17,-0.001,0.0,0.0,0.0
02/05/2023,03:02:17,-0.000,0.0,0.0,0.0
02/05/2023,03:03:18,-0.001,0.0,0.0,0.0
02/05/2023,03:04:18,0.000,0.0,0.0,0.0
02/05/2023,03:05:17,0.000,0.0,0.0,0.0
02/05/2023,03:06:17,0.000,0.0,0.0,0.0
02/05/2023,03:07:17,-0.001,0.0,0.0,0.0
02/05/2023,03:08:17,0.001,0.0,0.0,0.0
02/05/2023,03:09:18,-0.000,0.0,0.0,0.0
02/05/2023,03:10:17,0.000,0.0,0.0,0.0
02/05/2023,03:11:17,0.000,0.0,0.0,0.0
02/05/2023,03:12:17,-0.001,0.0,0.0,0.0
02/05/2023,03:13:17,-0.000,0.0,0.0,0.0
02/05/2023,03:14:17,0.000,0.0,0.0,0.0
02/05/2023,03:15:17,0.000,0.0,0.0,0.0
02/05/2023,03:16:17,0.001,0.0,0.0,0.0
02/05/2023,03:17:17,0.000,0.0,0.0,0.0
02/05/2023,03:18:17,0.000,0.0,0.0,0.0
02/05/2023,03:19:17,-0.000,0.0,0.0,0.0
02/05/2023,03:20:15,0.000,0.0,0.0,0.0
02/05/2023,03:21:18,0.001,0.0,0.0,0.0
02/05/2023,03:22:17,-0.000,0.0,0.0,0.0
02/05/2023,03:23:17,0.000,0.0,0.0,0.0
02/05/2023,03:24:17,0.000,0.0,0.0,0.0
02/05/2023,03:25:17,0.000,0.0,0.0,0.0
02/05/2023,03:26:17,-0.001,0.0,0.0,0.0
02/05/2023,03:27:17,0.000,0.0,0.0,0.0
02/05/2023,03:28:17,0.001,0.0,0.0,0.0
02/05/2023,03:29:17,0.001,0.0,0.0,0.0
02/05/2023,03:30:17,-0.001,0.0,0.0,0.0
02/05/2023,03:31:17,0.000,0.0,0.0,0.0
02/05/2023,03:32:17,-0.001,0.0,0.0,0.0
02/05/2023,03:33:17,-0.001,0.0,0.0,0.0
02/05/2023,03:34:17,-0.001,0.0,0.0,0.0
02/05/2023,03:35:17,0.000,0.0,0.0,0.0
02/05/2023,03:36:17,0.000,0.0,0.0,0.0
02/05/2023,03:37:18,0.000,0.0,0.0,0.0
02/05/2023,03:38:17,-0.000,0.0,0.0,0.0
02/05/2023,03:39:17,-0.000,0.0,0.0,0.0
02/05/2023,03:40:17,0.001,0.0,0.0,0.0
02/05/2023,03:41:17,0.000,0.0,0.0,0.0
02/05/2023,03:42:17,-0.001,0.0,0.0,0.0
02/05/2023,03:43:17,0.000,0.0,0.0,0.0
02/05/2023,03:44:17,-0.001,0.0,0.0,0.0
02/05/2023,03:45:17,0.001,0.0,0.0,0.0
02/05/2023,03:46:17,0.000,0.0,0.0,0.0
02/05/2023,03:47:17,-0.000,0.0,0.0,0.0
02/05/2023,03:48:17,0.000,0.0,0.0,0.0
02/05/2023,03:49:17,0.000,0.0,0.0,0.0
02/05/2023,03:50:17,-0.001,0.0,0.0,0.0
02/05/2023,03:51:17,0.000,0.0,0.0,0.0
02/05/2023,03:52:17,0.000,0.0,0.0,0.0
02/05/2023,03:53:18,0.000,0.0,0.0,0.0
02/05/2023,03:54:17,0.000,0.0,0.0,0.0
02/05/2023,03:55:18,0.001,0.0,0.0,0.0
02/05/2023,03:56:18,0.000,0.0,0.0,0.0
02/05/2023,03:57:17,0.001,0.0,0.0,0.0
02/05/2023,03:58:17,0.000,0.0,0.0,0.0
02/05/2023,03:59:17,0.000,0.0,0.0,0.0
02/05/2023,04:00:17,0.000,0.0,0.0,0.0
02/05/2023,04:01:17,0.000,0.0,0.0,0.0
02/05/2023,04:02:17,0.001,0.0,0.0,0.0
02/05/2023,04:03:18,0.001,0.0,0.0,0.0
02/05/2023,04:04:17,0.000,0.0,0.0,0.0
02/05/2023,04:05:17,-0.001,0.0,0.0,0.0
02/05/2023,04:06:17,-0.000,0.0,0.0,0.0
02/05/2023,04:07:18,0.001,0.0,0.0,0.0
02/05/2023,04:08:17,0.000,0.0,0.0,0.0
02/05/2023,04:09:18,0.000,0.0,0.0,0.0
02/05/2023,04:10:17,0.000,0.0,0.0,0.0
02/05/2023,04:11:17,0.001,0.0,0.0,0.0
02/05/2023,04:12:17,0.000,0.0,0.0,0.0
02/05/2023,04:13:17,0.001,0.0,0.0,0.0
02/05/2023,04:14:17,0.000,0.0,0.0,0.0
02/05/2023,04:15:18,0.000,0.0,0.0,0.0
02/05/2023,04:16:17,-0.001,0.0,0.0,0.0
02/05/2023,04:17:17,0.000,0.0,0.0,0.0
02/05/2023,04:18:17,0.001,0.0,0.0,0.0
02/05/2023,04:19:18,0.000,0.0,0.0,0.0
02/05/2023,04:20:17,-0.000,0.0,0.0,0.0
02/05/2023,04:21:17,0.000,0.0,0.0,0.0
02/05/2023,04:22:17,0.001,0.0,0.0,0.0
02/05/2023,04:23:17,0.000,0.0,0.0,0.0
02/05/2023,04:24:17,-0.000,0.0,0.0,0.0
02/05/2023,04:25:17,0.000,0.0,0.0,0.0
02/05/2023,04:26:17,0.000,0.0,0.0,0.0
02/05/2023,04:27:17,0.000,0.0,0.0,0.0
02/05/2023,04:28:18,0.000,0.0,0.0,0.0
02/05/2023,04:29:17,0.000,0.0,0.0,0.0
02/05/2023,04:30:17,0.001,0.0,0.0,0.0
02/05/2023,04:31:17,0.001,0.0,0.0,0.0
02/05/2023,04:32:18,0.001,0.0,0.0,0.0
02/05/2023,04:33:17,0.001,0.0,0.0,0.0
02/05/2023,04:34:17,0.000,0.0,0.0,0.0
02/05/2023,04:35:17,0.001,0.0,0.0,0.0
02/05/2023,04:36:17,0.001,0.0,0.0,0.0
02/05/2023,04:37:17,0.000,0.0,0.0,0.0
02/05/2023,04:38:18,0.001,0.0,0.0,0.0
02/05/2023,04:39:17,0.001,0.0,0.0,0.0
02/05/2023,04:40:18,0.001,0.0,0.0,0.0
02/05/2023,04:41:17,0.000,0.0,0.0,0.0
02/05/2023,04:42:17,0.001,0.0,0.0,0.0
02/05/2023,04:43:18,0.001,0.0,0.0,0.0
02/05/2023,04:44:17,0.001,0.0,0.0,0.0
02/05/2023,04:45:17,0.002,0.0,0.0,0.0
02/05/2023,04:46:17,0.002,0.0,0.0,0.0
02/05/2023,04:47:17,0.002,0.0,0.0,0.0
02/05/2023,04:48:17,0.002,0.0,0.0,0.0
02/05/2023,04:49:17,0.002,0.0,0.0,0.0
02/05/2023,04:50:17,0.002,0.0,0.0,0.0
02/05/2023,04:51:17,0.002,0.0,0.0,0.0
02/05/2023,04:52:18,0.003,0.0,0.0,0.0
02/05/2023,04:53:18,0.003,0.0,0.0,0.0
02/05/2023,04:54:17,0.003,0.0,0.0,0.0
02/05/2023,04:55:17,0.003,0.0,0.0,0.0
02/05/2023,04:56:17,0.003,0.0,0.0,0.0
02/05/2023,04:57:17,0.004,0.0,0.0,0.0
02/05/2023,04:58:17,0.003,0.0,0.0,0.0
02/05/2023,04:59:17,0.004,0.0,0.0,0.0
02/05/2023,05:00:18,0.003,0.0,0.0,0.0
02/05/2023,05:01:18,0.004,0.0,0.0,0.0
02/05/2023,05:02:17,0.004,0.0,0.0,0.0
02/05/2023,05:03:16,0.005,0.0,0.0,0.0
02/05/2023,05:04:17,0.005,0.0,0.0,0.0
02/05/2023,05:05:17,0.005,0.0,0.0,0.0
02/05/2023,05:06:17,0.005,0.0,0.0,0.0
02/05/2023,05:07:17,0.006,0.0,0.0,0.0
02/05/2023,05:08:17,0.006,0.0,0.0,0.0
02/05/2023,05:09:18,0.006,0.0,0.0,0.0
02/05/2023,05:10:18,0.007,0.0,0.0,0.0
02/05/2023,05:11:18,0.007,0.0,0.0,0.0
02/05/2023,05:12:17,0.008,0.0,0.0,0.0
02/05/2023,05:13:18,0.009,0.0,0.001,0.001
02/05/2023,05:14:17,0.010,0.0,0.001,0.0
02/05/2023,05:15:17,0.010,0.0,0.001,0.0
02/05/2023,05:16:17,0.010,0.0,0.001,0.0
02/05/2023,05:17:17,0.010,0.0,0.001,0.0
02/05/2023,05:18:17,0.010,0.0,0.001,0.0
02/05/2023,05:19:18,0.011,0.0,0.002,0.001
02/05/2023,05:20:18,0.012,0.0,0.002,0.0
02/05/2023,05:21:17,0.014,0.0,0.002,0.0
02/05/2023,05:22:17,0.014,0.0,0.002,0.0
02/05/2023,05:23:18,0.014,0.0,0.002,0.0
02/05/2023,05:24:18,0.015,0.0,0.003,0.001
02/05/2023,05:25:17,0.016,0.0,0.003,0.0
02/05/2023,05:26:17,0.018,0.0,0.003,0.0
02/05/2023,05:27:17,0.019,0.0,0.004,0.001
02/05/2023,05:28:18,0.020,0.0,0.004,0.0
02/05/2023,05:29:18,0.022,0.0,0.004,0.0
02/05/2023,05:30:17,0.022,0.0,0.005,0.001
02/05/2023,05:31:17,0.023,0.0,0.005,0.0
02/05/2023,05:32:17,0.024,0.0,0.005,0.0
02/05/2023,05:33:17,0.025,0.0,0.006,0.001
02/05/2023,05:34:17,0.024,0.0,0.006,0.0
02/05/2023,05:35:18,0.025,0.0,0.007,0.001
02/05/2023,05:36:17,0.026,0.0,0.007,0.0
02/05/2023,05:37:17,0.026,0.0,0.007,0.0
02/05/2023,05:38:17,0.027,0.0,0.008,0.001
02/05/2023,05:39:17,0.028,0.0,0.008,0.0
02/05/2023,05:40:18,0.030,0.0,0.009,0.001
02/05/2023,05:41:17,0.030,0.0,0.009,0.0
02/05/2023,05:42:17,0.031,0.0,0.01,0.001
02/05/2023,05:43:17,0.031,0.0,0.01,0.0
02/05/2023,05:44:17,0.031,0.0,0.011,0.001
02/05/2023,05:45:18,0.032,0.0,0.011,0.0
02/05/2023,05:46:17,0.033,0.0,0.012,0.001
02/05/2023,05:47:17,0.033,0.0,0.012,0.0
02/05/2023,05:48:17,0.033,0.0,0.013,0.001
02/05/2023,05:49:39,0.031,0.0,0.014,0.001
02/05/2023,05:51:17,0.031,0.0,0.015,0.001
02/05/2023,05:52:17,0.032,0.0,0.015,0.0
02/05/2023,05:53:18,0.033,0.0,0.016,0.001
02/05/2023,05:54:17,0.035,0.0,0.016,0.0
02/05/2023,05:55:18,0.035,0.0,0.017,0.001
02/05/2023,05:56:18,0.035,0.0,0.017,0.0
02/05/2023,05:57:18,0.037,0.0,0.018,0.001
02/05/2023,05:58:17,0.037,0.0,0.019,0.001
02/05/2023,05:59:17,0.040,0.0,0.019,0.0
02/05/2023,06:00:17,0.041,0.0,0.02,0.001
02/05/2023,06:01:17,0.042,0.0,0.021,0.001
02/05/2023,06:02:17,0.041,0.0,0.021,0.0
02/05/2023,06:03:18,0.041,0.0,0.022,0.001
02/05/2023,06:04:18,0.041,0.0,0.023,0.001
02/05/2023,06:05:18,0.044,0.0,0.023,0.0
02/05/2023,06:06:19,0.044,0.0,0.024,0.001
02/05/2023,06:07:20,0.046,0.0,0.025,0.001
02/05/2023,06:08:18,0.045,0.0,0.026,0.001
02/05/2023,06:09:18,0.047,0.0,0.026,0.0
02/05/2023,06:10:17,0.048,0.0,0.027,0.001
02/05/2023,06:11:17,0.050,0.0,0.028,0.001
02/05/2023,06:12:17,0.051,0.0,0.029,0.001
02/05/2023,06:13:17,0.051,0.0,0.03,0.001
02/05/2023,06:14:18,0.053,0.0,0.03,0.0
02/05/2023,06:15:18,0.054,0.0,0.031,0.001
02/05/2023,06:16:17,0.055,0.0,0.032,0.001
02/05/2023,06:17:17,0.057,0.0,0.033,0.001
02/05/2023,06:18:17,0.059,0.0,0.034,0.001
02/05/2023,06:19:17,0.061,0.0,0.035,0.001
02/05/2023,06:20:17,0.064,0.0,0.036,0.001
02/05/2023,06:21:18,0.065,0.0,0.037,0.001
02/05/2023,06:22:16,0.069,0.0,0.038,0.001
02/05/2023,06:23:48,0.070,0.0,0.04,0.002
02/05/2023,06:25:18,0.072,0.0,0.042,0.002
02/05/2023,06:26:18,0.077,0.0,0.043,0.001
02/05/2023,06:27:18,0.080,0.0,0.044,0.001
02/05/2023,06:28:17,0.080,0.0,0.046,0.002
02/05/2023,06:29:17,0.078,0.0,0.047,0.001
02/05/2023,06:30:17,0.078,0.0,0.048,0.001
02/05/2023,06:31:17,0.081,0.0,0.05,0.002
02/05/2023,06:32:18,0.086,0.0,0.051,0.001
02/05/2023,06:33:17,0.087,0.0,0.052,0.001
02/05/2023,06:34:18,0.088,0.0,0.054,0.002
02/05/2023,06:35:17,0.092,0.0,0.055,0.001
02/05/2023,06:36:18,0.096,0.0,0.057,0.002
02/05/2023,06:37:18,0.096,0.0,0.059,0.002
02/05/2023,06:38:17,0.097,0.0,0.06,0.001
02/05/2023,06:39:18,0.100,0.0,0.062,0.002
02/05/2023,06:40:18,0.098,0.0,0.064,0.002
02/05/2023,06:41:18,0.094,0.0,0.065,0.001
02/05/2023,06:42:18,0.091,0.0,0.067,0.002
02/05/2023,06:43:17,0.090,0.0,0.068,0.001
02/05/2023,06:44:18,0.090,0.0,0.07,0.002
02/05/2023,06:45:18,0.090,0.0,0.071,0.001
02/05/2023,06:46:17,0.091,0.0,0.073,0.002
02/05/2023,06:47:17,0.093,0.0,0.074,0.001
02/05/2023,06:48:17,0.095,0.0,0.076,0.002
02/05/2023,06:49:17,0.099,0.0,0.077,0.001
02/05/2023,06:50:17,0.105,0.0,0.079,0.002
02/05/2023,06:51:18,0.109,0.0,0.081,0.002
02/05/2023,06:52:17,0.113,0.0,0.083,0.002
02/05/2023,06:53:18,0.116,0.0,0.085,0.002
02/05/2023,06:54:18,0.120,0.0,0.087,0.002
02/05/2023,06:55:18,0.123,0.0,0.089,0.002
02/05/2023,06:56:17,0.126,0.0,0.091,0.002
02/05/2023,06:57:17,0.137,0.0,0.093,0.002
02/05/2023,06:58:17,0.144,0.0,0.095,0.002
02/05/2023,06:59:18,0.144,0.0,0.098,0.003
02/05/2023,07:00:17,0.139,0.0,0.1,0.002
02/05/2023,07:01:17,0.137,0.0,0.102,0.002
02/05/2023,07:02:17,0.142,0.0,0.105,0.003
02/05/2023,07:03:17,0.143,0.0,0.107,0.002
02/05/2023,07:04:18,0.140,0.0,0.109,0.002
02/05/2023,07:05:17,0.135,0.0,0.112,0.003
02/05/2023,07:06:17,0.133,0.0,0.114,0.002
02/05/2023,07:07:18,0.136,0.0,0.116,0.002
02/05/2023,07:08:18,0.139,0.0,0.118,0.002
02/05/2023,07:09:18,0.139,0.0,0.121,0.003
02/05/2023,07:10:17,0.139,0.0,0.123,0.002
02/05/2023,07:11:19,0.144,0.0,0.125,0.002
02/05/2023,07:12:17,0.146,0.0,0.128,0.003
02/05/2023,07:13:17,0.145,0.0,0.13,0.002
02/05/2023,07:14:17,0.144,0.0,0.133,0.003
02/05/2023,07:15:17,0.146,0.0,0.135,0.002
02/05/2023,07:16:17,0.145,0.0,0.138,0.003
02/05/2023,07:17:17,0.145,0.0,0.14,0.002
02/05/2023,07:18:17,0.144,0.0,0.142,0.002
02/05/2023,07:19:17,0.146,0.0,0.145,0.003
02/05/2023,07:20:17,0.147,0.0,0.147,0.002
02/05/2023,07:21:16,0.149,0.0,0.15,0.003
02/05/2023,07:22:40,0.153,0.0,0.153,0.003
02/05/2023,07:24:18,0.158,0.0,0.157,0.004
02/05/2023,07:25:17,0.166,0.0,0.16,0.003
02/05/2023,07:26:18,0.176,0.0,0.163,0.003
02/05/2023,07:27:18,0.180,0.0,0.166,0.003
02/05/2023,07:28:18,0.180,0.0,0.169,0.003
02/05/2023,07:29:18,0.182,0.0,0.172,0.003
02/05/2023,07:30:17,0.184,0.0,0.175,0.003
02/05/2023,07:31:17,0.187,0.0,0.178,0.003
02/05/2023,07:32:17,0.185,0.0,0.181,0.003
02/05/2023,07:33:17,0.183,0.0,0.184,0.003
02/05/2023,07:34:17,0.186,0.0,0.187,0.003
02/05/2023,07:35:18,0.185,0.0,0.19,0.003
02/05/2023,07:36:18,0.183,0.0,0.193,0.003
02/05/2023,07:37:18,0.179,0.0,0.196,0.003
02/05/2023,07:38:18,0.178,0.0,0.199,0.003
02/05/2023,07:39:18,0.176,0.0,0.202,0.003
02/05/2023,07:40:18,0.177,0.0,0.205,0.003
02/05/2023,07:41:17,0.184,0.0,0.208,0.003
02/05/2023,07:42:18,0.190,0.0,0.211,0.003
02/05/2023,07:43:18,0.192,0.0,0.215,0.004
02/05/2023,07:44:18,0.191,0.0,0.218,0.003
02/05/2023,07:45:19,0.196,0.0,0.221,0.003
02/05/2023,07:46:17,0.201,0.0,0.224,0.003
02/05/2023,07:47:17,0.202,0.0,0.228,0.004
02/05/2023,07:48:17,0.206,0.0,0.231,0.003
02/05/2023,07:49:17,0.211,0.0,0.235,0.004
02/05/2023,07:50:18,0.220,1.0,0.238,0.003
02/05/2023,07:51:18,0.226,1.0,0.242,0.004
02/05/2023,07:52:18,0.233,1.0,0.246,0.004
02/05/2023,07:53:18,0.246,1.0,0.25,0.004
02/05/2023,07:54:17,0.268,1.0,0.254,0.004
02/05/2023,07:55:18,0.280,1.0,0.259,0.005
02/05/2023,07:56:18,0.283,1.0,0.263,0.004
02/05/2023,07:57:18,0.278,1.0,0.268,0.005
02/05/2023,07:58:18,0.268,1.0,0.272,0.004
02/05/2023,07:59:18,0.256,1.0,0.277,0.005
02/05/2023,08:00:17,0.245,1.0,0.281,0.004
02/05/2023,08:01:19,0.241,1.0,0.285,0.004
02/05/2023,08:02:18,0.245,1.0,0.289,0.004
02/05/2023,08:03:18,0.252,1.0,0.293,0.004
02/05/2023,08:04:18,0.262,1.0,0.297,0.004
02/05/2023,08:05:17,0.289,1.0,0.302,0.005
02/05/2023,08:06:17,0.325,1.0,0.307,0.005
02/05/2023,08:07:18,0.342,1.0,0.313,0.006
02/05/2023,08:08:18,0.345,1.0,0.319,0.006
02/05/2023,08:09:18,0.348,1.0,0.324,0.005
02/05/2023,08:10:17,0.369,1.0,0.33,0.006
02/05/2023,08:11:18,0.404,1.0,0.337,0.007
02/05/2023,08:12:18,0.414,1.0,0.344,0.007
02/05/2023,08:13:18,0.395,1.0,0.351,0.007
02/05/2023,08:14:17,0.374,1.0,0.357,0.006
02/05/2023,08:15:18,0.346,1.0,0.363,0.006
02/05/2023,08:16:18,0.316,1.0,0.368,0.005
02/05/2023,08:17:18,0.294,1.0,0.374,0.006
02/05/2023,08:18:17,0.276,1.0,0.378,0.004
02/05/2023,08:19:18,0.257,1.0,0.383,0.005
02/05/2023,08:20:17,0.252,1.0,0.387,0.004
02/05/2023,08:21:17,0.264,1.0,0.391,0.004
02/05/2023,08:22:18,0.298,1.0,0.396,0.005
02/05/2023,08:23:18,0.331,1.0,0.401,0.005
02/05/2023,08:24:17,0.366,1.0,0.407,0.006
02/05/2023,08:25:17,0.389,1.0,0.413,0.006
02/05/2023,08:26:17,0.394,1.0,0.42,0.007
02/05/2023,08:27:17,0.407,1.0,0.426,0.006
02/05/2023,08:28:18,0.414,1.0,0.433,0.007
02/05/2023,08:29:18,0.395,1.0,0.44,0.007
02/05/2023,08:30:18,0.383,1.0,0.447,0.007
02/05/2023,08:31:18,0.399,1.0,0.453,0.006
02/05/2023,08:32:18,0.447,1.0,0.46,0.007
02/05/2023,08:33:17,0.487,1.0,0.468,0.008
02/05/2023,08:34:17,0.491,1.0,0.476,0.008
02/05/2023,08:35:17,0.491,1.0,0.484,0.008
02/05/2023,08:36:18,0.491,1.0,0.493,0.009
02/05/2023,08:37:18,0.469,1.0,0.501,0.008
02/05/2023,08:38:18,0.451,1.0,0.508,0.007
02/05/2023,08:39:18,0.463,1.0,0.516,0.008
02/05/2023,08:40:17,0.477,1.0,0.524,0.008
02/05/2023,08:41:18,0.478,1.0,0.532,0.008
02/05/2023,08:42:18,0.476,1.0,0.54,0.008
02/05/2023,08:43:17,0.481,1.0,0.548,0.008
02/05/2023,08:44:18,0.488,1.0,0.556,0.008
02/05/2023,08:45:18,0.492,1.0,0.564,0.008
02/05/2023,08:46:17,0.496,1.0,0.572,0.008
02/05/2023,08:47:17,0.487,1.0,0.58,0.008
02/05/2023,08:48:17,0.457,1.0,0.588,0.008
02/05/2023,08:49:18,0.438,1.0,0.596,0.008
02/05/2023,08:50:18,0.437,1.0,0.603,0.007
02/05/2023,08:51:18,0.441,1.0,0.61,0.007
02/05/2023,08:52:18,0.446,1.0,0.618,0.008
02/05/2023,08:53:17,0.455,1.0,0.625,0.007
02/05/2023,08:54:18,0.472,1.0,0.633,0.008
02/05/2023,08:55:18,0.488,1.0,0.641,0.008
02/05/2023,08:56:17,0.658,2.0,0.65,0.009
02/05/2023,08:57:18,0.569,1.0,0.659,0.009
02/05/2023,08:58:18,0.598,1.0,0.669,0.01
02/05/2023,08:59:17,0.605,1.0,0.679,0.01
02/05/2023,09:00:18,0.601,1.0,0.689,0.01
02/05/2023,09:01:18,0.598,1.0,0.699,0.01
02/05/2023,09:02:17,0.606,1.0,0.709,0.01
02/05/2023,09:03:17,0.630,1.0,0.719,0.01
02/05/2023,09:04:18,0.656,2.0,0.73,0.011
02/05/2023,09:05:18,0.678,2.0,0.741,0.011
02/05/2023,09:06:18,0.676,2.0,0.753,0.012
02/05/2023,09:07:17,0.698,2.0,0.764,0.011
02/05/2023,09:08:18,0.775,2.0,0.778,0.014
02/05/2023,09:09:18,0.746,2.0,0.791,0.013
02/05/2023,09:10:17,0.837,2.0,0.803,0.012
02/05/2023,09:11:18,0.774,2.0,0.817,0.014
02/05/2023,09:12:18,0.901,2.0,0.831,0.014
02/05/2023,09:13:18,0.855,2.0,0.845,0.014
02/05/2023,09:14:17,0.747,2.0,0.858,0.013
02/05/2023,09:15:17,0.812,2.0,0.871,0.013
02/05/2023,09:16:17,0.988,2.0,0.887,0.016
02/05/2023,09:17:17,1.001,2.0,0.903,0.016
02/05/2023,09:18:17,0.810,2.0,0.919,0.016
02/05/2023,09:19:18,0.803,2.0,0.933,0.014
02/05/2023,09:20:17,0.762,2.0,0.946,0.013
02/05/2023,09:21:17,0.702,2.0,0.958,0.012
02/05/2023,09:22:17,0.639,1.0,0.969,0.011
02/05/2023,09:23:18,0.586,1.0,0.979,0.01
02/05/2023,09:24:17,0.551,1.0,0.989,0.01
02/05/2023,09:25:18,0.527,1.0,0.998,0.009
02/05/2023,09:26:18,0.510,1.0,1.006,0.008
02/05/2023,09:27:18,0.507,1.0,1.015,0.009
02/05/2023,09:28:17,0.515,1.0,1.023,0.008
02/05/2023,09:29:18,0.548,1.0,1.032,0.009
02/05/2023,09:30:18,0.602,1.0,1.042,0.01
02/05/2023,09:31:17,0.641,1.0,1.052,0.01
02/05/2023,09:32:18,0.669,2.0,1.063,0.011
02/05/2023,09:33:18,0.683,2.0,1.074,0.011
02/05/2023,09:34:18,0.688,2.0,1.086,0.012
02/05/2023,09:35:18,0.692,2.0,1.097,0.011
02/05/2023,09:36:18,0.706,2.0,1.109,0.012
02/05/2023,09:37:18,0.709,2.0,1.121,0.012
02/05/2023,09:38:17,0.696,2.0,1.132,0.011
02/05/2023,09:39:18,0.668,2.0,1.144,0.012
02/05/2023,09:40:18,0.631,1.0,1.155,0.011
02/05/2023,09:41:17,0.599,1.0,1.165,0.01
02/05/2023,09:42:18,0.580,1.0,1.175,0.01
02/05/2023,09:43:17,0.564,1.0,1.184,0.009
02/05/2023,09:44:18,0.550,1.0,1.193,0.009
02/05/2023,09:45:18,0.541,1.0,1.202,0.009
02/05/2023,09:46:18,0.533,1.0,1.211,0.009
02/05/2023,09:47:17,0.527,1.0,1.22,0.009
02/05/2023,09:48:17,0.519,1.0,1.229,0.009
02/05/2023,09:49:18,0.514,1.0,1.238,0.009
02/05/2023,09:50:18,0.513,1.0,1.246,0.008
02/05/2023,09:51:18,0.514,1.0,1.255,0.009
02/05/2023,09:52:18,0.513,1.0,1.263,0.008
02/05/2023,09:53:18,0.508,1.0,1.272,0.009
02/05/2023,09:54:17,0.500,1.0,1.28,0.008
02/05/2023,09:55:18,0.486,1.0,1.288,0.008
02/05/2023,09:56:18,0.472,1.0,1.296,0.008
02/05/2023,09:57:18,0.462,1.0,1.304,0.008
02/05/2023,09:58:18,0.457,1.0,1.312,0.008
02/05/2023,09:59:18,0.455,1.0,1.319,0.007
02/05/2023,10:00:18,0.459,1.0,1.327,0.008
02/05/2023,10:01:18,0.466,1.0,1.335,0.008
02/05/2023,10:02:18,0.471,1.0,1.343,0.008
02/05/2023,10:03:20,0.468,1.0,1.351,0.008